Regional Weather Roundup
Issued by NWS

Home | Current Version | Previous Version | Text Only | Print | Product List | Glossary Off
Versions: 1 2 3 4 5 6 7 8 9 10 11 12 13 14 15 16 17 18 19 20 21 22 23 24 25 26 27 28 29 30 31 32 33 34 35 36 37 38 39 40 41 42 43 44 45 46 47 48 49 50

000
ASUS43 KMKX 171811
RWRWI

WISCONSIN REGIONAL WEATHER ROUNDUP
NATIONAL WEATHER SERVICE MILWAUKEE/SULLIVAN WI
100 PM CDT THU AUG 17 2017

NOTE: "FAIR" INDICATES FEW OR NO CLOUDS BELOW 12,000 FEET WITH NO
SIGNIFICANT WEATHER AND/OR OBSTRUCTIONS TO VISIBILITY.

WIZ001-002-006>008-014>016-023>028-171900-
NORTHWEST WISCONSIN

CITY           SKY/WX    TMP DP  RH WIND       PRES   REMARKS
SUPERIOR ARPT  DRIZZLE   63  62  99 NW8       29.64R
6HR MIN TEMP:  61; 6HR MAX TEMP:  63; 6HR PCP:  0.19;

ASHLAND        LGT RAIN  64  63  96 N6        29.58S FOG
6HR MIN TEMP:  62; 6HR MAX TEMP:  64; 6HR PCP:  0.41;

HAYWARD        LGT RAIN  67  64  90 VRB3      29.58S
6HR MIN TEMP:  64; 6HR MAX TEMP:  67; 6HR PCP:  1.16;

SIREN          RAIN      62  61  95 NW12      29.64R
6HR MIN TEMP:  62; 6HR MAX TEMP:  66; 6HR PCP:  0.21;

CUMBERLAND     CLOUDY    64  63  94 NW13      29.61R
RICE LAKE      CLOUDY    72  66  83 W9        29.59S
6HR MIN TEMP:  65; 6HR MAX TEMP:  73; 6HR PCP:  0.43;

CHETEK         CLOUDY    71  66  82 NW8       29.58R
6HR MIN TEMP:  66; 6HR MAX TEMP:  72; 6HR PCP:  0.17;

LADYSMITH      CLOUDY    68  67  94 N6        29.58S
6HR MIN TEMP:  66; 6HR MAX TEMP:  68; 6HR PCP:  0.28;

EAU CLAIRE     CLOUDY    72  65  78 W8        29.57R
6HR MIN TEMP:  66; 6HR MAX TEMP:  74; 6HR PCP:  0.17;

MENOMONIE      CLOUDY    74  65  72 W13G18    29.59R
6HR MIN TEMP:  66; 6HR MAX TEMP:  75; 6HR PCP:  0.26;

NEW RICHMOND   CLOUDY    64  62  94 NW15G23   29.66R
6HR MIN TEMP:  64; 6HR MAX TEMP:  74; 6HR PCP:  0.07;

OSCEOLA        CLOUDY    64  64 100 NW12G23   29.69R
6HR MIN TEMP:  64; 6HR MAX TEMP:  71; 6HR PCP:  0.01;

$$

WIZ003>005-009-010-017-018-171900-
NORTH CENTRAL WISCONSIN

CITY           SKY/WX    TMP DP  RH WIND       PRES   REMARKS
MANITOWISH WTR HVY RAIN  65  65 100 S6G16     29.58S
6HR MIN TEMP:  63; 6HR MAX TEMP:  70; 6HR PCP:  0.42;

ARBOR VITAE    CLOUDY    72  66  81 S7G17     29.57F
6HR MIN TEMP:  64; 6HR MAX TEMP:  72; 6HR PCP:  0.09;

WOODRUFF       CLOUDY    72  66  81 S7G17     29.57F
6HR MIN TEMP:  64; 6HR MAX TEMP:  72; 6HR PCP:  0.09;

RHINELANDER    CLOUDY    70  63  78 S8G18     29.59S
6HR MIN TEMP:  64; 6HR MAX TEMP:  72; 6HR PCP:  0.03;

EAGLE RIVER    CLOUDY    72  62  71 S10       29.57F
6HR MIN TEMP:  64; 6HR MAX TEMP:  72;

LAND O LAKES   PTSUNNY   72  65  78 SW7       29.59F
6HR MIN TEMP:  65; 6HR MAX TEMP:  73;

PHILLIPS       DRIZZLE   65  65 100 CALM      29.56F
6HR MIN TEMP:  64; 6HR MAX TEMP:  67; 6HR PCP:  0.23;

TOMAHAWK       DRIZZLE   66  64  94 CALM      29.58F
6HR MIN TEMP:  65; 6HR MAX TEMP:  71;

MEDFORD        CLOUDY    66  65  95 S12       29.54F FOG
6HR MIN TEMP:  64; 6HR MAX TEMP:  67; 6HR PCP:  0.11;

MERRILL        RAIN      66  66 100 S7        29.57F
$$

WIZ029-030-035-036-043>047-171900-
CENTRAL WISCONSIN

CITY           SKY/WX    TMP DP  RH WIND       PRES   REMARKS
WAUSAU         LGT RAIN  67  66  97 S14G23    29.55F FOG
6HR MIN TEMP:  67; 6HR MAX TEMP:  72; 6HR PCP:  0.06;

MOSINEE        LGT RAIN  66  66 100 S14G20    29.59F
MARSHFIELD     LGT RAIN  68  65  90 SW18G28   29.56F FOG
6HR MIN TEMP:  67; 6HR MAX TEMP:  68; 6HR PCP:  0.02;

STEVENS POINT  HVY RAIN  67  66  96 S18G24    29.59F
6HR MIN TEMP:  66; 6HR MAX TEMP:  70;

WAUPACA        CLOUDY    75  64  68 SW16G23   29.61F
6HR MIN TEMP:  72; 6HR MAX TEMP:  77;

WAUTOMA        CLOUDY    73  65  75 S15G21    29.61F
6HR MIN TEMP:  71; 6HR MAX TEMP:  74;

WISC RAPIDS    LGT RAIN  69  66  90 SW13G22   29.60F
6HR MIN TEMP:  68; 6HR MAX TEMP:  71; 6HR PCP:  0.03;

CAMP DOUGLAS   CLOUDY    72  66  83 SW17G23   29.61S
                                      6HR PCP: TRACE;

$$

WIZ011>013-019>022-031-037>040-048>050-171900-
NORTHEAST WISCONSIN

CITY           SKY/WX    TMP DP  RH WIND       PRES   REMARKS
ANTIGO         CLOUDY    71  63  77 SW13      29.59F
6HR MIN TEMP:  66; 6HR MAX TEMP:  72; 6HR PCP:  0.02;

SHAWANO        CLOUDY    77  65  68 SW7G16    29.59F
6HR MIN TEMP:  73; 6HR MAX TEMP:  80;

OCONTO         CLOUDY    78  67  68 S14G20    29.58F HX  80
6HR MIN TEMP:  71; 6HR MAX TEMP:  80; 6HR PCP:  0.01;

STURGEON BAY   MOSUNNY   77  71  82 S13G22    29.60F
6HR MIN TEMP:  69; 6HR MAX TEMP:  78; 6HR PCP:  0.11;

GREEN BAY      PTSUNNY   76  68  76 SW9G20    29.60F
6HR MIN TEMP:  71; 6HR MAX TEMP:  79; 6HR PCP: TRACE;

MANITOWOC      LGT RAIN  71  66  84 SW8       29.63F
6HR MIN TEMP:  70; 6HR MAX TEMP:  79; 6HR PCP:  0.06;

APPLETON       LGT RAIN  75  61  60 SW21G28   29.62F
CLINTONVILLE   PTSUNNY   77  63  61 SW17      29.59F
OSHKOSH        PTSUNNY   74  64  71 S16G29    29.63F
6HR MIN TEMP:  71; 6HR MAX TEMP:  79; 6HR PCP: TRACE;

$$

WIZ032>034-041-042-053>061-171900-
SOUTHWEST WISCONSIN

CITY           SKY/WX    TMP DP  RH WIND       PRES   REMARKS
LA CROSSE      CLOUDY    75  65  70 W16       29.62S
6HR MIN TEMP:  71; 6HR MAX TEMP:  76; 6HR PCP: TRACE;

SPARTA         CLOUDY    72  65  77 SW13G20   29.62S
6HR MIN TEMP:  66; 6HR MAX TEMP:  72;

VIROQUA        CLOUDY    68  68 100 SW16G22   29.66F
6HR MIN TEMP:  65; 6HR MAX TEMP:  69; 6HR PCP:  0.02;

BOSCOBEL       CLOUDY    75  66  73 SW9       29.67F
6HR MIN TEMP:  70; 6HR MAX TEMP:  75; 6HR PCP:  0.02;

PRAIRIE DU CHI CLOUDY    75  63  65 W17G24    29.68S
6HR MIN TEMP:  68; 6HR MAX TEMP:  76;

PLATTEVILLE    PTSUNNY   74  69  84 SW18G26   29.72F
6HR MIN TEMP:  68; 6HR MAX TEMP:  75;

$$

WIZ056-057-062-063-064-067-068-171900-
SOUTH CENTRAL WISCONSIN

CITY           SKY/WX    TMP DP  RH WIND       PRES   REMARKS
REEDSBURG      CLOUDY    72  68  88 SW16G23   29.64F
6HR MIN TEMP:  68; 6HR MAX TEMP:  73;

BARABOO/DELLS  LGT RAIN  70  65  85 SW12      29.64F
6HR MIN TEMP:  69; 6HR MAX TEMP:  73; 6HR PCP:  0.01;

LONE ROCK      CLOUDY    75  68  78 W15G21    29.66F
6HR MIN TEMP:  69; 6HR MAX TEMP:  77; 6HR PCP:  0.01;

MINERAL POINT  LGT RAIN  73  68  83 W15G21    29.71S
MADISON        PTSUNNY   75  65  70 SW10G21   29.67F
6HR MIN TEMP:  72; 6HR MAX TEMP:  75;

MIDDLETON      PTSUNNY   76  65  67 W10G20    29.68F
6HR MIN TEMP:  72; 6HR MAX TEMP:  77;

WATERTOWN      PTSUNNY   77  67  71 SW16G24   29.68S
6HR MIN TEMP:  70; 6HR MAX TEMP:  78;

MONROE         CLOUDY    75  64  69 SW14G26   29.72F
JANESVILLE     LGT RAIN  73  64  73 SW18G25   29.73R
$$

WIZ051-052-058>065-066-070>072-171900-
SOUTHEAST WISCONSIN

CITY           SKY/WX    TMP DP  RH WIND       PRES   REMARKS
MILWAUKEE      LGT RAIN  78  69  73 SW21G28   29.68F HX  80
6HR MIN TEMP:  73; 6HR MAX TEMP:  82; 6HR PCP: TRACE;

WAUKESHA       CLOUDY    75  64  69 SW16G22   29.70F
MILWAUKEE/TIMM CLOUDY    77  63  61 S14G23    29.68F
RACINE         LGT RAIN  75  68  78 W17G32    29.72S
6HR MIN TEMP:  72; 6HR MAX TEMP:  80; 6HR PCP:  0.02;

KENOSHA        CLOUDY    78  67  68 SW13G24   29.70F HX  80
6HR MIN TEMP:  72; 6HR MAX TEMP:  81;

FOND DU LAC    PTSUNNY   77  63  61 SW17G26   29.64F
6HR MIN TEMP:  73; 6HR MAX TEMP:  79; 6HR PCP: TRACE;

SHEBOYGAN      CLOUDY    76  67  73 SW18G26   29.64F
6HR MIN TEMP:  73; 6HR MAX TEMP:  81; 6HR PCP: TRACE;

WEST BEND      PTSUNNY   75  68  78 W13G18    29.66F
JUNEAU         PTSUNNY   75  64  70 SW21G26   29.69F
6HR MIN TEMP:  71; 6HR MAX TEMP:  77;

$$

LSZ147-162-171900-
LAKE SUPERIOR

STATION/POSITION TIME  TEMP    WIND        PRES    WAVE
                       AIR SEA DIR/SP/G            HT/PER
                 (UTC) (F)     (DEG/KT/KT) (MB)    (FT/S)
W MID LAKE BUOY  1750   60 60   30/ 17/ 21 1001.2F   5/ 5
DEVILS ISLAND    1800   60      40/ 23/ 26 1001.5F
SAXON HARBOR     1730   64     300/  5/  7 1001.0R
$$

LMZ867-665-643>646-171900-
LAKE MICHIGAN

STATION/POSITION TIME  TEMP    WIND        PRES    WAVE
                       AIR SEA DIR/SP/G            HT/PER
                 (UTC) (F)     (DEG/KT/KT) (MB)    (FT/S)
S GREEN BAY BUOY 1800   73 72  220/ 14/ 16 1001.9
N MID LAKE BUOY  1750   69 67  160/ 14/ 17 1003.9F   4/


USA.gov is the U.S. government's official web portal to all federal, state and local government web resources and services.